OBJECT H

基本信息
目录编号:
62721
目录名称:
OBJECT H
国际标识:
2023-195H
轨道中心:
EARTH
物体状态:
在轨
发射日期:
2023-12-14 UTC
国别:
中国 (CN)
轨道信息
数据来源: 国际轨道数据
星历时间: 2026-07-04T12:13:58+0800
半长轴: 6921.56km
偏心率: 0.0001293
轨道倾角: 49.985°
近地点辐角: 79.705°
升交点赤经: 150.064°
平近点角: 280.404°
近地点: 542.528km
远地点: 544.318km
周期: 95.514分钟
每日圈数: 15.076372
详细信息
发射场:
JSC
轨道高度:
LEO
数据来源:
AOE Integration Group
参考系:
TEME
时间系统:
UTC
历元类型:
SGP4
2D轨道图
3D轨道图
轨道高度分析图
轨道倾角分析图
轨道综合分析图
查看轨道综合分析图